MDT,Max TemperatureF,Mean TemperatureF,Min TemperatureF,Max Dew PointF,MeanDew PointF,Min DewpointF,Max Humidity, Mean Humidity, Min Humidity, Max Sea Level PressureIn, Mean Sea Level PressureIn, Min Sea Level PressureIn, Max VisibilityMiles, Mean VisibilityMiles, Min VisibilityMiles, Max Wind SpeedMPH, Mean Wind SpeedMPH, Max Gust SpeedMPH,PrecipitationIn, CloudCover, Events, WindDirDegrees
2012-10-1,73,58,42,37,34,28,76,42,21,30.37,30.21,30.00,10,10,7,18,8,29,0.00,0,,177
2012-10-2,78,68,53,34,26,19,33,21,13,29.98,29.88,29.80,10,10,8,22,11,30,0.00,0,,272
2012-10-3,55,44,33,36,30,27,93,72,35,30.42,30.20,29.81,10,10,4,28,15,38,0.00,5,,1
2012-10-4,41,36,30,32,28,25,93,78,53,30.40,30.30,30.22,10,10,5,15,6,,0.00,8,,12
2012-10-5,37,32,28,28,27,23,93,80,56,30.36,30.29,30.25,10,10,5,17,10,23,0.00,8,,360
2012-10-6,44,30,15,23,16,10,100,59,27,30.36,30.28,30.19,10,10,10,13,6,17,0.00,2,,154
2012-10-7,57,42,28,23,19,16,75,43,21,30.19,30.07,29.97,10,10,10,14,5,17,0.00,2,,131
2012-10-8,55,42,30,37,24,16,87,49,24,30.03,29.93,29.87,10,10,10,16,6,22,0.00,1,,10
2012-10-9,48,40,32,34,26,19,93,65,37,30.15,30.10,30.03,10,10,10,17,9,24,0.00,5,,78
2012-10-10,66,47,28,34,27,21,86,50,21,30.12,30.00,29.89,10,10,5,14,6,20,0.00,0,,97
2012-10-11,48,40,33,36,33,28,100,78,62,30.18,30.11,30.04,10,10,10,16,8,23,0.00,3,,32
2012-10-12,73,52,30,36,31,27,93,54,20,30.04,29.89,29.76,10,10,9,16,5,18,0.00,1,,162
2012-10-13,62,52,42,36,31,25,57,44,25,30.16,29.98,29.84,10,10,9,16,4,31,0.00,2,,235
2012-10-14,68,58,48,30,28,25,46,33,21,30.23,30.14,30.05,10,10,10,18,8,28,0.00,0,,266
2012-10-15,64,54,44,39,33,28,71,41,28,30.03,29.93,29.87,10,10,10,22,10,39,0.00,3,,241
2012-10-16,66,55,44,45,32,9,82,43,22,29.86,29.65,29.47,10,10,9,31,12,48,0.13,3,,263
2012-10-17,50,42,33,16,13,9,48,31,20,30.13,29.94,29.80,10,10,10,22,12,34,0.00,2,,299
2012-10-18,55,40,24,23,18,14,74,45,24,30.22,30.15,30.09,10,10,10,12,5,16,0.00,0,,108
2012-10-19,66,48,30,30,25,19,69,41,21,30.09,29.91,29.77,10,10,10,18,7,33,0.00,2,,265
2012-10-20,62,52,42,36,34,30,76,49,32,29.78,29.66,29.60,10,10,10,21,11,36,0.00,1,,261
2012-10-21,44,38,30,34,31,27,93,75,57,29.87,29.84,29.78,10,10,10,18,8,23,0.00,4,,34
2012-10-22,44,36,28,39,33,25,100,88,75,29.84,29.73,29.61,10,10,1,12,3,,0.04,5,,125
2012-10-23,48,42,37,37,23,10,93,46,29,29.87,29.73,29.61,10,10,10,22,11,32,0.00,1,,248
2012-10-24,39,31,23,27,23,12,100,74,38,30.09,29.98,29.88,10,10,5,14,6,17,0.00,1,,22
2012-10-25,26,22,19,25,21,18,100,90,80,30.33,30.19,30.09,10,8,1,15,6,,0.00,6,,27
2012-10-26,39,26,12,23,16,7,100,67,31,30.36,30.21,30.07,10,9,0,17,5,29,0.00,3,,277
2012-10-27,46,36,26,27,20,16,69,52,37,30.07,30.02,29.97,10,10,10,23,6,31,0.00,5,,246
2012-10-28,60,48,37,36,31,19,66,47,31,29.99,29.93,29.88,10,10,10,24,13,45,0.01,3,,253
2012-10-29,64,58,53,37,36,30,54,44,32,30.06,30.00,29.95,10,10,10,23,13,34,0.00,5,,242
2012-10-30,64,57,50,30,27,23,41,31,21,30.12,30.07,30.03,10,10,10,17,11,26,0.00,1,,245
2012-10-31,66,57,48,32,28,25,47,35,23,30.11,30.06,29.99,10,10,10,24,9,31,0.00,0,,163